<?xml version="1.0" encoding="UTF-8"?>
<gpx
version="1.1"
creator="Kashmir3D 9.350 - http://www.kashmir3d.com"
xmlns:xsi="http://www.w3.org/2001/XMLSchema-instance"
xmlns="http://www.topografix.com/GPX/1/1"
xmlns:kashmir3d="http://www.kashmir3d.com/namespace/kashmir3d"
xsi:schemaLocation="http://www.topografix.com/GPX/1/1 http://www.topografix.com/GPX/1/1/gpx.xsd
	http://www.kashmir3d.com/namespace/kashmir3d http://www.kashmir3d.com/namespace/kashmir3d.xsd">
<trk>
 <name>BIZAN.KML(眉山)</name>
 <number>1</number>
 <extensions>
 <kashmir3d:line_color>0000ff</kashmir3d:line_color>
 <kashmir3d:line_size>3</kashmir3d:line_size>
 <kashmir3d:line_style>1</kashmir3d:line_style>
 <kashmir3d:icon>901001</kashmir3d:icon>
 </extensions>
<trkseg>
<trkpt lat="34.070227" lon="134.545323">
 <ele>2.2</ele>
 <time>2020-03-26T16:39:47Z</time>
</trkpt>
<trkpt lat="34.070046" lon="134.545388">
 <ele>2.1</ele>
 <time>2020-03-26T16:39:47Z</time>
</trkpt>
<trkpt lat="34.069918" lon="134.545087">
 <ele>2.1</ele>
 <time>2020-03-26T16:39:48Z</time>
</trkpt>
<trkpt lat="34.069840" lon="134.544787">
 <ele>9.7</ele>
 <time>2020-03-26T16:39:48Z</time>
</trkpt>
<trkpt lat="34.069978" lon="134.544583">
 <ele>5.8</ele>
 <time>2020-03-26T16:39:48Z</time>
</trkpt>
<trkpt lat="34.069926" lon="134.544390">
 <ele>15.5</ele>
 <time>2020-03-26T16:39:48Z</time>
</trkpt>
<trkpt lat="34.069900" lon="134.544261">
 <ele>21.1</ele>
 <time>2020-03-26T16:39:48Z</time>
</trkpt>
<trkpt lat="34.069969" lon="134.544175">
 <ele>21.1</ele>
 <time>2020-03-26T16:39:48Z</time>
</trkpt>
<trkpt lat="34.069969" lon="134.544047">
 <ele>27.5</ele>
 <time>2020-03-26T16:39:48Z</time>
</trkpt>
<trkpt lat="34.069943" lon="134.543929">
 <ele>30.9</ele>
 <time>2020-03-26T16:39:48Z</time>
</trkpt>
<trkpt lat="34.069789" lon="134.543971">
 <ele>41.6</ele>
 <time>2020-03-26T16:39:48Z</time>
</trkpt>
<trkpt lat="34.069600" lon="134.544068">
 <ele>50</ele>
 <time>2020-03-26T16:39:48Z</time>
</trkpt>
<trkpt lat="34.069368" lon="134.544057">
 <ele>60.5</ele>
 <time>2020-03-26T16:39:49Z</time>
</trkpt>
<trkpt lat="34.069308" lon="134.543982">
 <ele>63.7</ele>
 <time>2020-03-26T16:39:49Z</time>
</trkpt>
<trkpt lat="34.069188" lon="134.543896">
 <ele>72.8</ele>
 <time>2020-03-26T16:39:49Z</time>
</trkpt>
<trkpt lat="34.069145" lon="134.543628">
 <ele>84.1</ele>
 <time>2020-03-26T16:39:49Z</time>
</trkpt>
<trkpt lat="34.069145" lon="134.543456">
 <ele>91.3</ele>
 <time>2020-03-26T16:39:49Z</time>
</trkpt>
<trkpt lat="34.069145" lon="134.543285">
 <ele>99.4</ele>
 <time>2020-03-26T16:39:49Z</time>
</trkpt>
<trkpt lat="34.069111" lon="134.543177">
 <ele>102.9</ele>
 <time>2020-03-26T16:39:49Z</time>
</trkpt>
<trkpt lat="34.069102" lon="134.542888">
 <ele>112.2</ele>
 <time>2020-03-26T16:39:49Z</time>
</trkpt>
<trkpt lat="34.069102" lon="134.542695">
 <ele>115.9</ele>
 <time>2020-03-26T16:39:49Z</time>
</trkpt>
<trkpt lat="34.069085" lon="134.542587">
 <ele>119.1</ele>
 <time>2020-03-26T16:39:50Z</time>
</trkpt>
<trkpt lat="34.069111" lon="134.542491">
 <ele>121.8</ele>
 <time>2020-03-26T16:39:50Z</time>
</trkpt>
<trkpt lat="34.069111" lon="134.542384">
 <ele>124.6</ele>
 <time>2020-03-26T16:39:50Z</time>
</trkpt>
<trkpt lat="34.069136" lon="134.542233">
 <ele>128.8</ele>
 <time>2020-03-26T16:39:50Z</time>
</trkpt>
<trkpt lat="34.069197" lon="134.542169">
 <ele>133.3</ele>
 <time>2020-03-26T16:39:50Z</time>
</trkpt>
<trkpt lat="34.069214" lon="134.542083">
 <ele>136.7</ele>
 <time>2020-03-26T16:39:50Z</time>
</trkpt>
<trkpt lat="34.069282" lon="134.542030">
 <ele>140.7</ele>
 <time>2020-03-26T16:39:50Z</time>
</trkpt>
<trkpt lat="34.069342" lon="134.541987">
 <ele>143</ele>
 <time>2020-03-26T16:39:51Z</time>
</trkpt>
<trkpt lat="34.069420" lon="134.541933">
 <ele>144.7</ele>
 <time>2020-03-26T16:39:51Z</time>
</trkpt>
<trkpt lat="34.069497" lon="134.541826">
 <ele>147.8</ele>
 <time>2020-03-26T16:39:51Z</time>
</trkpt>
<trkpt lat="34.069497" lon="134.541718">
 <ele>149.8</ele>
 <time>2020-03-26T16:39:51Z</time>
</trkpt>
<trkpt lat="34.069437" lon="134.541643">
 <ele>154</ele>
 <time>2020-03-26T16:39:51Z</time>
</trkpt>
<trkpt lat="34.069394" lon="134.541515">
 <ele>158.4</ele>
 <time>2020-03-26T16:39:51Z</time>
</trkpt>
<trkpt lat="34.069368" lon="134.541407">
 <ele>161.6</ele>
 <time>2020-03-26T16:39:51Z</time>
</trkpt>
<trkpt lat="34.069274" lon="134.541289">
 <ele>166.3</ele>
 <time>2020-03-26T16:39:51Z</time>
</trkpt>
<trkpt lat="34.069205" lon="134.541139">
 <ele>172.3</ele>
 <time>2020-03-26T16:39:52Z</time>
</trkpt>
<trkpt lat="34.069128" lon="134.540967">
 <ele>177.2</ele>
 <time>2020-03-26T16:39:52Z</time>
</trkpt>
<trkpt lat="34.069136" lon="134.540860">
 <ele>178.4</ele>
 <time>2020-03-26T16:39:52Z</time>
</trkpt>
<trkpt lat="34.069094" lon="134.540753">
 <ele>180.7</ele>
 <time>2020-03-26T16:39:52Z</time>
</trkpt>
<trkpt lat="34.069051" lon="134.540613">
 <ele>184.3</ele>
 <time>2020-03-26T16:39:52Z</time>
</trkpt>
<trkpt lat="34.068999" lon="134.540485">
 <ele>188.6</ele>
 <time>2020-03-26T16:39:52Z</time>
</trkpt>
<trkpt lat="34.068948" lon="134.540399">
 <ele>191.2</ele>
 <time>2020-03-26T16:39:52Z</time>
</trkpt>
<trkpt lat="34.068905" lon="134.540152">
 <ele>198.4</ele>
 <time>2020-03-26T16:39:53Z</time>
</trkpt>
<trkpt lat="34.068862" lon="134.539734">
 <ele>215.8</ele>
 <time>2020-03-26T16:39:53Z</time>
</trkpt>
<trkpt lat="34.068879" lon="134.539540">
 <ele>223.8</ele>
 <time>2020-03-26T16:39:53Z</time>
</trkpt>
<trkpt lat="34.068879" lon="134.539433">
 <ele>225.2</ele>
 <time>2020-03-26T16:39:53Z</time>
</trkpt>
<trkpt lat="34.068879" lon="134.539347">
 <ele>225.8</ele>
 <time>2020-03-26T16:39:53Z</time>
</trkpt>
<trkpt lat="34.068827" lon="134.539261">
 <ele>229.3</ele>
 <time>2020-03-26T16:39:53Z</time>
</trkpt>
<trkpt lat="34.068767" lon="134.539133">
 <ele>233.3</ele>
 <time>2020-03-26T16:39:53Z</time>
</trkpt>
<trkpt lat="34.068613" lon="134.538993">
 <ele>241.4</ele>
 <time>2020-03-26T16:39:53Z</time>
</trkpt>
<trkpt lat="34.068536" lon="134.538843">
 <ele>243.7</ele>
 <time>2020-03-26T16:39:54Z</time>
</trkpt>
<trkpt lat="34.068433" lon="134.538682">
 <ele>246.9</ele>
 <time>2020-03-26T16:39:54Z</time>
</trkpt>
<trkpt lat="34.068390" lon="134.538553">
 <ele>248.3</ele>
 <time>2020-03-26T16:39:54Z</time>
</trkpt>
<trkpt lat="34.068390" lon="134.538403">
 <ele>250.2</ele>
 <time>2020-03-26T16:39:54Z</time>
</trkpt>
<trkpt lat="34.068373" lon="134.538049">
 <ele>259.6</ele>
 <time>2020-03-26T16:39:54Z</time>
</trkpt>
<trkpt lat="34.068364" lon="134.537813">
 <ele>264.7</ele>
 <time>2020-03-26T16:39:54Z</time>
</trkpt>
<trkpt lat="34.068390" lon="134.537684">
 <ele>268.4</ele>
 <time>2020-03-26T16:39:54Z</time>
</trkpt>
<trkpt lat="34.068424" lon="134.537556">
 <ele>270.4</ele>
 <time>2020-03-26T16:39:55Z</time>
</trkpt>
<trkpt lat="34.068364" lon="134.537523">
 <ele>271.6</ele>
 <time>2020-03-26T16:39:55Z</time>
</trkpt>
<trkpt lat="34.068218" lon="134.537534">
 <ele>271.5</ele>
 <time>2020-03-26T16:39:55Z</time>
</trkpt>
<trkpt lat="34.067986" lon="134.537523">
 <ele>271.7</ele>
 <time>2020-03-26T16:39:55Z</time>
</trkpt>
<trkpt lat="34.067695" lon="134.537534">
 <ele>273.5</ele>
 <time>2020-03-26T16:39:55Z</time>
</trkpt>
<trkpt lat="34.067471" lon="134.537556">
 <ele>273</ele>
 <time>2020-03-26T16:39:55Z</time>
</trkpt>
<trkpt lat="34.067283" lon="134.537588">
 <ele>271.9</ele>
 <time>2020-03-26T16:39:55Z</time>
</trkpt>
<trkpt lat="34.067128" lon="134.537620">
 <ele>276</ele>
 <time>2020-03-26T16:39:55Z</time>
</trkpt>
<trkpt lat="34.066956" lon="134.537684">
 <ele>276</ele>
 <time>2020-03-26T16:39:56Z</time>
</trkpt>
<trkpt lat="34.067128" lon="134.537620">
 <ele>276</ele>
 <time>2020-03-26T16:39:56Z</time>
</trkpt>
<trkpt lat="34.067283" lon="134.537588">
 <ele>271.9</ele>
 <time>2020-03-26T16:39:56Z</time>
</trkpt>
<trkpt lat="34.067471" lon="134.537556">
 <ele>273</ele>
 <time>2020-03-26T16:39:56Z</time>
</trkpt>
<trkpt lat="34.067695" lon="134.537534">
 <ele>273.5</ele>
 <time>2020-03-26T16:39:56Z</time>
</trkpt>
<trkpt lat="34.067986" lon="134.537523">
 <ele>271.7</ele>
 <time>2020-03-26T16:39:56Z</time>
</trkpt>
<trkpt lat="34.068218" lon="134.537534">
 <ele>271.5</ele>
 <time>2020-03-26T16:39:56Z</time>
</trkpt>
<trkpt lat="34.068364" lon="134.537523">
 <ele>271.6</ele>
 <time>2020-03-26T16:39:56Z</time>
</trkpt>
<trkpt lat="34.068424" lon="134.537556">
 <ele>270.4</ele>
 <time>2020-03-26T16:39:57Z</time>
</trkpt>
<trkpt lat="34.068390" lon="134.537684">
 <ele>268.4</ele>
 <time>2020-03-26T16:39:57Z</time>
</trkpt>
<trkpt lat="34.068364" lon="134.537813">
 <ele>264.7</ele>
 <time>2020-03-26T16:39:57Z</time>
</trkpt>
<trkpt lat="34.068373" lon="134.538049">
 <ele>259.6</ele>
 <time>2020-03-26T16:39:57Z</time>
</trkpt>
<trkpt lat="34.068390" lon="134.538403">
 <ele>250.2</ele>
 <time>2020-03-26T16:39:57Z</time>
</trkpt>
<trkpt lat="34.068390" lon="134.538553">
 <ele>248.3</ele>
 <time>2020-03-26T16:39:57Z</time>
</trkpt>
<trkpt lat="34.068433" lon="134.538682">
 <ele>246.9</ele>
 <time>2020-03-26T16:39:57Z</time>
</trkpt>
<trkpt lat="34.068536" lon="134.538843">
 <ele>243.7</ele>
 <time>2020-03-26T16:39:58Z</time>
</trkpt>
<trkpt lat="34.068613" lon="134.538993">
 <ele>241.4</ele>
 <time>2020-03-26T16:39:58Z</time>
</trkpt>
<trkpt lat="34.068767" lon="134.539133">
 <ele>233.3</ele>
 <time>2020-03-26T16:39:58Z</time>
</trkpt>
<trkpt lat="34.068827" lon="134.539261">
 <ele>229.3</ele>
 <time>2020-03-26T16:39:58Z</time>
</trkpt>
<trkpt lat="34.068879" lon="134.539347">
 <ele>225.8</ele>
 <time>2020-03-26T16:39:58Z</time>
</trkpt>
<trkpt lat="34.068879" lon="134.539433">
 <ele>225.2</ele>
 <time>2020-03-26T16:39:58Z</time>
</trkpt>
<trkpt lat="34.068879" lon="134.539540">
 <ele>223.8</ele>
 <time>2020-03-26T16:39:58Z</time>
</trkpt>
<trkpt lat="34.068862" lon="134.539734">
 <ele>215.8</ele>
 <time>2020-03-26T16:39:58Z</time>
</trkpt>
<trkpt lat="34.068905" lon="134.540152">
 <ele>198.4</ele>
 <time>2020-03-26T16:39:59Z</time>
</trkpt>
<trkpt lat="34.068948" lon="134.540399">
 <ele>191.2</ele>
 <time>2020-03-26T16:39:59Z</time>
</trkpt>
<trkpt lat="34.068999" lon="134.540485">
 <ele>188.6</ele>
 <time>2020-03-26T16:39:59Z</time>
</trkpt>
<trkpt lat="34.069051" lon="134.540613">
 <ele>184.3</ele>
 <time>2020-03-26T16:39:59Z</time>
</trkpt>
<trkpt lat="34.069094" lon="134.540753">
 <ele>180.7</ele>
 <time>2020-03-26T16:39:59Z</time>
</trkpt>
<trkpt lat="34.069136" lon="134.540860">
 <ele>178.4</ele>
 <time>2020-03-26T16:39:59Z</time>
</trkpt>
<trkpt lat="34.069128" lon="134.540967">
 <ele>177.2</ele>
 <time>2020-03-26T16:39:59Z</time>
</trkpt>
<trkpt lat="34.069205" lon="134.541139">
 <ele>172.3</ele>
 <time>2020-03-26T16:40:00Z</time>
</trkpt>
<trkpt lat="34.069274" lon="134.541289">
 <ele>166.3</ele>
 <time>2020-03-26T16:40:00Z</time>
</trkpt>
<trkpt lat="34.069368" lon="134.541407">
 <ele>161.6</ele>
 <time>2020-03-26T16:40:00Z</time>
</trkpt>
<trkpt lat="34.069394" lon="134.541515">
 <ele>158.4</ele>
 <time>2020-03-26T16:40:00Z</time>
</trkpt>
<trkpt lat="34.069437" lon="134.541643">
 <ele>154</ele>
 <time>2020-03-26T16:40:00Z</time>
</trkpt>
<trkpt lat="34.069497" lon="134.541718">
 <ele>149.8</ele>
 <time>2020-03-26T16:40:00Z</time>
</trkpt>
<trkpt lat="34.069497" lon="134.541826">
 <ele>147.8</ele>
 <time>2020-03-26T16:40:00Z</time>
</trkpt>
<trkpt lat="34.069420" lon="134.541933">
 <ele>144.7</ele>
 <time>2020-03-26T16:40:00Z</time>
</trkpt>
<trkpt lat="34.069342" lon="134.541987">
 <ele>143</ele>
 <time>2020-03-26T16:40:01Z</time>
</trkpt>
<trkpt lat="34.069282" lon="134.542030">
 <ele>140.7</ele>
 <time>2020-03-26T16:40:01Z</time>
</trkpt>
<trkpt lat="34.069214" lon="134.542083">
 <ele>136.7</ele>
 <time>2020-03-26T16:40:01Z</time>
</trkpt>
<trkpt lat="34.069197" lon="134.542169">
 <ele>133.3</ele>
 <time>2020-03-26T16:40:01Z</time>
</trkpt>
<trkpt lat="34.069136" lon="134.542233">
 <ele>128.8</ele>
 <time>2020-03-26T16:40:01Z</time>
</trkpt>
<trkpt lat="34.069111" lon="134.542384">
 <ele>124.6</ele>
 <time>2020-03-26T16:40:01Z</time>
</trkpt>
<trkpt lat="34.069111" lon="134.542491">
 <ele>121.8</ele>
 <time>2020-03-26T16:40:01Z</time>
</trkpt>
<trkpt lat="34.069085" lon="134.542587">
 <ele>119.1</ele>
 <time>2020-03-26T16:40:02Z</time>
</trkpt>
<trkpt lat="34.069102" lon="134.542695">
 <ele>115.9</ele>
 <time>2020-03-26T16:40:02Z</time>
</trkpt>
<trkpt lat="34.069102" lon="134.542888">
 <ele>112.2</ele>
 <time>2020-03-26T16:40:02Z</time>
</trkpt>
<trkpt lat="34.069111" lon="134.543177">
 <ele>102.9</ele>
 <time>2020-03-26T16:40:02Z</time>
</trkpt>
<trkpt lat="34.069145" lon="134.543285">
 <ele>99.4</ele>
 <time>2020-03-26T16:40:02Z</time>
</trkpt>
<trkpt lat="34.069145" lon="134.543456">
 <ele>91.3</ele>
 <time>2020-03-26T16:40:02Z</time>
</trkpt>
<trkpt lat="34.069145" lon="134.543628">
 <ele>84.1</ele>
 <time>2020-03-26T16:40:02Z</time>
</trkpt>
<trkpt lat="34.069188" lon="134.543896">
 <ele>72.8</ele>
 <time>2020-03-26T16:40:02Z</time>
</trkpt>
<trkpt lat="34.069308" lon="134.543982">
 <ele>63.7</ele>
 <time>2020-03-26T16:40:03Z</time>
</trkpt>
<trkpt lat="34.069368" lon="134.544057">
 <ele>60.5</ele>
 <time>2020-03-26T16:40:03Z</time>
</trkpt>
<trkpt lat="34.069600" lon="134.544068">
 <ele>50</ele>
 <time>2020-03-26T16:40:03Z</time>
</trkpt>
<trkpt lat="34.069789" lon="134.543971">
 <ele>41.6</ele>
 <time>2020-03-26T16:40:03Z</time>
</trkpt>
<trkpt lat="34.069943" lon="134.543929">
 <ele>30.9</ele>
 <time>2020-03-26T16:40:03Z</time>
</trkpt>
<trkpt lat="34.069969" lon="134.544047">
 <ele>27.5</ele>
 <time>2020-03-26T16:40:03Z</time>
</trkpt>
<trkpt lat="34.069969" lon="134.544175">
 <ele>21.1</ele>
 <time>2020-03-26T16:40:03Z</time>
</trkpt>
<trkpt lat="34.069900" lon="134.544261">
 <ele>21.1</ele>
 <time>2020-03-26T16:40:03Z</time>
</trkpt>
<trkpt lat="34.069926" lon="134.544390">
 <ele>15.5</ele>
 <time>2020-03-26T16:40:03Z</time>
</trkpt>
<trkpt lat="34.069978" lon="134.544583">
 <ele>5.8</ele>
 <time>2020-03-26T16:40:03Z</time>
</trkpt>
<trkpt lat="34.069840" lon="134.544787">
 <ele>9.7</ele>
 <time>2020-03-26T16:40:04Z</time>
</trkpt>
<trkpt lat="34.069918" lon="134.545087">
 <ele>2.1</ele>
 <time>2020-03-26T16:40:04Z</time>
</trkpt>
<trkpt lat="34.070046" lon="134.545388">
 <ele>2.1</ele>
 <time>2020-03-26T16:40:04Z</time>
</trkpt>
<trkpt lat="34.070227" lon="134.545323">
 <ele>2.2</ele>
 <time>2020-03-26T16:40:04Z</time>
</trkpt>
</trkseg>
</trk>
</gpx>

